Theta_e
325 325 325 326 326 325 325 325 324 323 324 324 323 322 322 321 319 311 308 308 305 305 307 307 308 310 311 313 312 313 320 322 322 321 317 314 315 312 313 313 311 310 310 308 308
326 326 326 326 326 325 325 324 323 323 324 324 324 324 322 322 317 310 308 306 306 306 307 309 310 310 312 312 312 315 319 320 319 319 316 314 314 313 314 314 312 310 308 307 307
326 326 325 325 325 325 324 324 323 324 324 324 324 324 324 323 313 309 306 307 308 308 308 307 309 310 312 312 312 314 317 316 315 314 313 314 314 312 315 315 312 311 308 307 307
325 324 324 324 324 324 324 323 323 323 324 324 323 323 323 323 323 310 308 307 308 308 308 309 310 311 312 313 312 313 312 313 313 312 312 313 313 312 313 311 308 306 306 306 306
325 325 324 324 323 323 322 322 322 321 321 322 322 321 321 323 320 315 311 310 309 308 308 310 311 311 313 312 312 313 312 312 312 312 312 312 313 312 309 306 305 305 305 305 305
326 325 324 324 324 323 322 322 321 321 319 318 318 319 319 324 322 320 313 312 308 308 309 310 310 310 311 312 312 312 312 312 312 312 312 313 312 312 309 306 306 306 305 305 304
324 324 325 323 324 322 321 320 320 320 318 316 318 319 316 320 321 320 315 310 308 308 309 308 309 310 310 311 310 311 312 313 312 312 313 313 314 314 309 307 307 306 305 304 303
321 320 321 321 320 319 319 318 317 315 311 314 317 318 315 317 321 320 319 308 307 307 308 307 308 309 310 309 310 312 312 315 313 311 312 313 316 311 308 308 308 307 305 304 303
318 318 317 318 317 315 315 312 313 312 309 314 317 317 316 318 314 314 313 309 308 308 308 308 309 309 309 310 312 312 317 315 314 311 312 313 316 311 309 308 308 306 306 305 304
310 311 312 311 310 310 310 310 312 309 310 313 316 315 316 315 311 313 311 308 308 308 309 310 311 313 312 312 316 313 313 314 315 313 312 313 314 311 309 309 308 307 306 305 304
307 307 308 308 308 308 308 310 313 316 313 314 316 316 314 309 312 307 308 307 308 310 314 311 315 318 315 312 310 311 311 312 313 310 312 313 314 312 309 308 308 307 306 305 304
305 305 305 306 306 307 307 313 314 311 312 310 310 313 314 313 314 312 307 309 310 314 311 314 319 319 311 311 311 311 312 313 313 311 312 314 314 312 309 309 309 308 306 305 304
302 302 303 303 304 305 309 311 308 309 311 309 310 310 311 312 312 312 309 310 312 315 315 320 320 311 313 316 314 315 314 315 314 312 312 313 314 313 310 309 307 306 306 304 303
299 299 299 300 301 302 306 305 307 307 311 308 309 311 312 312 312 313 311 310 310 313 314 315 314 312 315 315 315 319 315 314 313 313 316 313 316 315 313 311 307 306 305 304 302
299 298 299 300 302 304 303 305 306 307 309 307 310 310 313 313 311 308 312 309 312 313 312 315 312 311 312 313 311 315 312 313 313 314 316 315 314 317 314 312 311 308 306 303 302
300 299 300 301 301 301 302 306 307 310 306 310 312 313 314 313 311 310 311 309 308 314 313 314 313 312 314 314 312 312 311 312 313 314 317 316 316 317 316 314 313 308 305 302 300
303 302 302 303 306 303 305 307 309 307 304 309 312 312 313 313 313 310 312 313 313 312 313 312 313 312 312 314 313 311 313 315 315 316 317 315 315 316 313 311 312 309 304 300 299
304 304 304 305 305 306 308 308 306 303 304 307 309 311 311 311 311 312 310 310 312 312 312 310 310 310 309 311 312 312 313 314 314 314 315 314 313 315 310 307 308 306 302 299 298
304 303 303 304 306 308 307 308 302 301 304 308 307 310 309 309 309 309 309 308 308 311 310 310 310 309 309 310 310 311 312 312 313 314 315 315 315 311 308 306 304 302 300 299 298
303 303 302 304 306 306 309 305 304 302 305 304 306 303 302 303 305 310 306 309 309 309 310 310 310 309 309 310 310 311 311 312 312 316 316 315 315 316 311 309 306 303 300 297 297
303 302 301 303 305 307 308 304 303 303 303 304 303 302 302 302 303 304 304 306 308 307 307 308 308 307 309 309 310 311 311 311 311 314 315 316 316 312 312 311 308 303 299 297 295
301 303 300 301 306 305 305 304 302 303 303 303 303 303 304 304 304 305 304 305 307 307 308 309 309 310 309 310 310 310 311 311 313 315 314 315 320 309 310 310 307 305 296 295 294
301 301 300 303 305 305 303 303 302 303 303 303 303 303 304 303 303 304 304 305 306 307 306 307 308 309 307 308 310 310 310 310 310 311 314 318 318 308 307 307 306 302 297 294 293
302 302 301 302 302 303 303 303 303 302 302 302 303 303 303 303 304 304 304 304 304 304 304 306 306 308 310 309 310 311 310 310 310 312 315 316 318 308 306 307 303 300 297 295 293
301 302 301 302 302 303 302 302 302 302 301 302 303 303 303 304 305 306 306 306 305 305 306 309 307 305 306 307 307 309 309 310 311 312 313 315 314 315 309 306 302 299 297 295 294
301 302 301 301 301 302 301 301 301 301 302 303 303 303 304 305 305 306 306 306 306 306 306 308 310 309 309 308 309 311 311 311 311 311 312 314 313 311 309 308 302 299 296 295 293
301 301 301 301 302 302 304 302 302 301 302 302 303 304 305 305 304 304 304 304 305 306 306 307 309 310 311 309 311 313 313 312 311 311 312 313 313 308 307 305 302 300 297 296 294
Wind_Speed
8 8 9 9 9 10 11 12 13 15 17 17 17 17 16 16 14 8 4 4 6 7 7 6 5 4 3 1 1 1 5 6 8 9 10 10 8 6 7 12 10 8 9 5 5
10 10 11 11 11 11 12 13 16 19 20 19 18 18 16 15 11 7 3 4 7 8 7 6 5 3 4 2 1 4 6 2 2 5 8 7 7 8 6 12 12 13 10 8 7
13 12 12 14 14 12 12 14 17 17 18 19 18 17 17 15 2 4 2 4 7 9 8 6 5 2 4 3 0 0 5 3 6 4 2 9 8 3 11 6 4 8 7 7 7
16 15 14 15 16 14 15 17 17 18 17 18 21 20 17 10 6 3 5 7 8 8 8 5 4 3 4 3 1 5 2 2 5 3 3 4 9 6 5 7 8 8 8 7 8
18 18 15 17 17 16 16 20 24 20 20 20 21 22 20 8 3 6 6 7 7 6 5 4 3 3 4 2 3 8 4 4 5 6 8 8 7 7 11 9 8 8 8 8 8
19 17 16 18 17 16 18 20 26 23 23 20 19 19 13 14 9 5 3 6 4 4 5 5 3 3 3 4 5 2 5 7 6 7 7 10 10 6 8 9 8 7 7 7 8
18 18 18 20 21 23 23 22 23 22 22 19 17 17 13 13 8 8 7 5 4 2 2 3 4 3 2 3 3 4 9 9 12 11 7 14 9 7 15 11 8 6 6 6 7
24 25 25 25 21 23 23 25 21 22 19 16 16 17 10 13 12 11 8 5 3 1 3 1 3 1 3 2 3 5 5 10 8 10 7 15 10 13 16 15 11 7 5 4 4
26 25 24 23 23 24 25 22 18 19 19 14 13 7 9 4 1 1 2 4 3 2 1 1 1 1 2 4 6 6 10 5 4 7 4 14 2 12 16 15 12 9 8 5 3
26 24 23 23 21 20 19 17 18 17 18 14 15 8 8 4 2 4 4 8 4 5 3 2 3 4 4 6 6 4 6 7 10 5 10 14 8 10 14 16 15 10 7 6 4
22 21 21 19 18 17 15 12 8 5 5 8 2 5 1 0 1 2 6 7 5 7 7 3 7 7 2 2 3 5 8 9 5 2 6 9 12 12 15 15 15 13 10 7 4
21 21 20 17 15 13 12 6 6 3 9 13 17 19 14 10 7 10 8 10 10 11 7 6 10 3 2 4 7 8 10 11 10 4 6 8 11 11 16 16 15 14 12 9 6
17 17 16 13 12 11 10 7 8 4 6 7 8 10 10 11 12 16 12 9 10 10 10 13 4 4 4 7 9 11 13 12 13 3 8 9 17 16 17 15 13 12 11 9 8
14 13 12 10 8 11 8 10 7 4 4 4 3 1 2 5 5 10 15 12 7 11 11 10 5 11 13 11 10 15 11 14 12 9 10 7 9 11 16 18 18 18 15 12 8
15 14 13 15 7 9 8 12 8 2 5 3 3 2 4 6 3 3 7 12 13 7 5 3 3 4 6 6 4 7 5 10 13 14 15 17 8 9 12 15 21 22 16 11 8
16 15 15 16 10 10 11 13 10 2 7 4 3 4 5 6 1 3 2 5 1 10 12 17 13 9 11 7 7 7 8 8 8 10 14 17 14 17 12 16 16 21 16 12 9
16 15 17 15 10 13 19 15 3 5 2 5 3 4 3 3 3 2 4 7 5 5 6 3 13 16 14 14 12 9 9 8 9 10 13 7 9 20 5 3 7 20 18 13 10
18 15 20 15 13 20 23 3 6 2 2 2 3 4 3 4 1 2 3 7 6 7 8 6 5 6 6 12 7 8 14 10 10 12 13 5 9 8 6 6 10 18 16 12 10
21 17 19 15 16 22 11 4 2 3 3 6 5 5 6 3 2 3 5 9 5 11 7 4 6 1 6 4 5 3 11 16 19 20 11 14 10 6 9 10 13 15 13 11 9
24 15 14 18 17 17 4 4 2 0 1 2 9 5 4 4 4 3 4 3 4 10 13 5 11 5 7 10 14 16 5 7 9 6 14 13 16 12 13 14 13 12 13 11 10
24 9 12 18 14 12 5 5 3 3 0 0 3 3 3 3 7 6 4 3 4 2 5 10 11 13 9 11 14 8 13 12 11 7 9 9 8 3 2 14 16 16 13 12 11
18 4 17 20 10 8 8 5 3 2 2 2 1 4 7 3 8 8 10 7 4 1 5 4 5 10 16 13 11 14 13 11 11 10 11 14 15 2 1 10 16 16 16 13 9
16 5 21 19 8 9 6 8 5 6 5 4 5 6 2 7 6 11 11 7 10 8 4 3 6 10 14 13 17 14 18 15 18 17 20 15 7 3 5 8 13 20 19 15 12
10 4 7 12 9 12 12 11 9 8 12 8 6 4 9 12 13 8 7 6 5 7 13 10 15 18 15 14 11 12 13 15 16 10 17 17 15 4 4 7 13 15 16 16 12
9 5 9 7 11 9 11 6 12 9 11 10 6 16 12 9 11 16 16 15 16 18 18 10 18 18 23 24 21 22 22 21 18 20 16 16 12 6 9 10 20 23 18 16 13
9 6 8 8 17 18 11 9 12 11 10 10 13 9 10 14 17 15 12 9 9 7 11 11 14 14 17 16 18 21 21 22 24 23 24 22 26 16 6 11 20 23 21 17 14
12 8 11 11 13 11 16 15 11 14 15 21 14 12 13 18 19 18 21 21 18 14 11 8 7 6 14 11 8 10 17 23 24 25 24 22 21 8 9 16 24 26 23 19 15
Wind_Direction
279 290 298 303 314 327 333 334 335 338 339 338 335 339 343 347 343 352 27 351 355 356 2 355 343 324 316 272 35 271 236 205 171 183 129 134 135 77 78 100 63 65 87 87 84
275 283 290 296 305 316 320 326 328 331 331 333 333 334 339 347 349 31 24 18 9 8 9 12 1 331 250 248 231 262 264 147 74 127 140 130 130 126 149 113 101 93 85 80 82
276 279 285 292 296 303 309 312 322 329 330 334 337 337 337 345 31 29 34 6 350 359 4 358 349 315 259 262 348 98 296 155 144 120 175 133 107 72 152 106 87 125 98 84 81
269 276 286 291 292 295 301 305 315 318 321 323 327 332 340 349 321 305 319 323 327 340 357 344 334 274 263 250 298 246 224 234 132 86 149 124 130 99 47 99 115 114 102 93 76
262 266 276 281 285 291 304 308 312 311 310 316 318 328 340 313 275 306 323 324 335 347 354 344 24 317 293 291 265 250 195 200 165 95 102 118 103 116 102 111 106 96 86 76 70
252 262 267 273 274 285 292 297 302 303 309 313 316 323 336 298 279 287 297 313 329 13 9 11 25 356 306 298 284 349 249 225 200 193 160 143 133 147 147 142 123 108 88 73 64
258 264 262 270 272 285 291 289 290 293 301 308 315 323 316 284 285 291 291 276 297 345 7 34 5 324 319 270 323 293 272 225 216 188 167 151 173 167 156 158 152 138 113 90 68
265 267 265 266 270 276 276 281 287 289 293 292 303 310 278 274 276 288 273 260 267 308 118 46 5 339 302 297 251 265 258 252 128 196 176 194 225 163 167 166 166 163 147 114 70
260 260 261 262 266 273 279 280 278 285 290 284 298 298 278 288 75 326 233 222 197 176 131 15 80 160 211 247 244 200 271 254 172 216 178 214 186 167 179 178 172 176 171 161 123
256 257 258 261 263 267 270 279 280 285 283 279 267 273 247 210 221 229 196 179 189 178 193 206 195 224 196 222 270 337 272 253 266 139 214 216 235 171 190 192 182 185 184 169 144
254 255 253 253 255 256 262 272 295 282 247 244 228 263 135 267 76 203 190 184 194 220 223 179 246 237 264 260 290 290 285 287 314 30 280 250 247 196 190 199 185 188 190 184 163
248 253 251 250 246 245 243 225 238 244 294 252 247 254 255 263 277 248 205 200 203 223 179 203 239 275 165 194 219 233 259 263 268 228 252 236 242 195 194 202 199 194 189 185 180
235 237 239 234 227 226 225 222 247 271 267 275 244 251 245 227 242 244 208 226 236 226 223 261 305 145 226 234 228 233 242 250 252 223 237 258 255 205 202 199 199 201 196 190 183
225 225 223 209 207 216 220 217 214 228 276 187 210 208 202 197 250 238 223 219 213 259 254 271 299 246 256 254 252 267 235 252 245 249 258 204 275 189 190 203 204 201 199 193 183
221 219 207 191 192 178 206 180 175 148 277 107 146 182 153 186 336 37 201 210 243 210 231 223 206 218 231 245 243 275 271 243 247 252 265 227 259 263 184 205 208 202 198 186 173
204 205 190 193 194 189 170 154 137 182 241 147 144 176 161 201 159 104 151 202 275 245 246 262 278 263 252 277 255 299 253 244 244 253 245 254 235 267 214 222 201 185 188 178 165
192 183 178 181 186 172 154 142 146 226 86 164 171 194 182 155 195 202 178 187 226 225 222 240 243 242 245 256 248 244 251 250 229 216 249 292 247 241 88 107 196 174 181 171 159
175 181 174 170 169 160 153 141 206 167 184 124 161 156 206 164 169 197 223 244 227 241 279 285 250 184 172 220 263 252 244 245 268 260 282 152 244 261 109 124 142 165 168 163 155
179 181 186 169 164 162 169 206 251 175 119 162 141 190 199 202 262 257 249 263 272 215 235 263 242 161 224 216 226 257 232 249 266 278 275 263 232 172 156 154 156 158 161 160 155
177 174 187 177 168 169 204 217 180 254 311 185 207 217 196 183 221 201 228 156 233 236 238 278 282 261 279 271 244 243 263 220 216 238 240 244 248 265 198 194 182 173 169 168 163
175 160 184 179 163 174 211 211 160 188 34 263 197 206 213 233 249 248 245 203 252 271 279 271 262 270 247 242 268 215 240 237 264 213 257 264 269 28 331 198 190 182 176 174 169
166 167 168 173 173 197 211 184 143 188 211 214 312 263 252 229 264 239 244 237 142 333 280 246 285 272 267 269 265 261 270 268 244 243 245 256 260 93 125 168 180 176 174 171 173
157 110 169 172 201 198 180 179 174 187 212 194 219 233 208 253 260 241 251 252 252 281 273 317 252 275 265 242 235 242 243 250 260 267 263 253 248 57 123 149 168 166 172 173 179
156 135 160 198 221 215 190 205 196 211 239 237 245 251 250 250 248 260 249 256 236 262 302 299 253 249 255 263 307 278 258 257 250 246 257 248 259 170 177 166 169 182 176 172 176
175 178 175 180 210 200 195 204 204 210 222 210 218 226 228 237 247 251 257 267 263 257 253 240 251 250 257 263 269 266 268 272 266 262 244 259 247 219 195 201 187 179 178 174 173
169 158 169 168 182 197 186 214 212 206 215 205 230 225 233 242 245 285 302 295 280 243 239 233 257 257 261 264 260 258 259 263 261 265 264 248 254 251 234 212 177 182 178 179 179
190 153 165 163 177 192 211 214 214 223 241 239 241 253 253 255 276 283 279 274 259 267 250 281 262 266 258 271 291 277 248 252 253 245 244 245 249 162 174 179 182 183 182 182 178